Location: Proctor
(47.8934°N, 114.3048°W)
Time: 00:21:36
(UTC+00:00)

POLYITAN 1 - Pass Details

Date: 04 July 2022
Orbit: 586 x 605 km, 98.0° (Epoch: 15 August)

Event Time Altitude Azimuth Distance (km) Brightness Sun altitude
Rises 09:50:23 0° 10° (N) 2,863 ? -13.6°
Reaches altitude 10° 09:52:35 10° 7° (N) 1,958 ? -13.4°
Maximum altitude 09:56:47 61° 288° (WNW) 692 ? -13.0°
Enters shadow 09:59:37 20° 212° (SSW) 1,421 ? -12.8°
